Land O' Lakes, WI

3:14 PM CDT on September 27, 2016 (GMT -0500)
Kings Land O'Lakes

Weather History for KLNL - March, 2013

Change the Weather History Date:

Friday, March 8, 2013

  Actual Average (KEGV) Record (KEGV)
Temperature  
Mean Temperature 22 °F -  
Max Temperature 41 °F 42 °F 56 °F (1977)
Min Temperature 3 °F 19 °F -18 °F (2008)
Degree Days  
Heating Degree Days 43    
Moisture  
Dew Point 16 °F    
Average Humidity 68    
Maximum Humidity 93    
Minimum Humidity 42    
Precipitation  
Precipitation 0.00 in - - ()
Sea Level Pressure  
Sea Level Pressure 30.29 in    
Wind  
Wind Speed 4 mph (South)    
Max Wind Speed 15 mph    
Max Gust Speed 20 mph    
Visibility 10 miles    
Events      
Averages and records for this station are not official NWS values.
T = Trace of Precipitation, MM = Missing Value Source: NWS Daily Summary

Daily Weather History Graph

Daily Weather History Graph

Search for Another Location

Airport or City:

Trip Planner

Search our weather history database for the weather conditions in past years. The results will help you decide how hot, cold, wet, or windy it might be!

Date:

Astronomy

Mar. 08, 2013 Rise Set
Actual Time 6:22 AM CST 5:53 PM CST
Civil Twilight 5:52 AM CST 6:23 PM CST
Nautical Twilight 5:17 AM CST 6:58 PM CST
Astronomical Twilight 4:42 AM CST 7:33 PM CST
Moon 4:15 AM CST (3/8) 2:40 PM CST (3/8)
Length of Visible Light 12h 30m
Length of Day
11h 31m
Waning Crescent, 11% of the Moon is Illuminated
Mar 8
Waning Crescent
Mar 11
New
Mar 19
First Quarter
Mar 27
Full
Apr 2
Last Quarter

Hourly Weather History & Observations

Time (CST) Temp. Windchill Dew Point Humidity Pressure Visibility Wind Dir Wind Speed Gust Speed Precip Events Conditions
12:15 AM 6.8 °F - 3.2 °F 85% 30.35 in 10.0 mi Calm Calm - N/A   Clear
12:35 AM 6.8 °F -0.1 °F 3.2 °F 85% 30.35 in 10.0 mi ESE 3.5 mph - N/A   Clear
12:55 AM 5.0 °F - 1.4 °F 85% 30.35 in 10.0 mi Calm Calm - N/A   Clear
1:15 AM 5.0 °F - 1.4 °F 85% 30.35 in 10.0 mi Calm Calm - N/A   Clear
1:35 AM 5.0 °F - 1.4 °F 85% 30.35 in 10.0 mi Calm Calm - N/A   Clear
1:55 AM 5.0 °F - 3.2 °F 92% 30.35 in 10.0 mi Calm Calm - N/A   Clear
2:15 AM 3.2 °F -4.2 °F 1.4 °F 92% 30.35 in 10.0 mi SSW 3.5 mph - N/A   Mostly Cloudy
2:35 AM 6.8 °F - 3.2 °F 85% 30.35 in 10.0 mi Calm Calm - N/A   Scattered Clouds
2:55 AM 5.0 °F - 3.2 °F 92% 30.35 in 10.0 mi Calm Calm - N/A   Clear
3:15 AM 5.0 °F - 1.4 °F 85% 30.35 in 10.0 mi Calm Calm - N/A   Clear
3:35 AM 3.2 °F - -0.4 °F 85% 30.36 in 10.0 mi Calm Calm - N/A   Clear
3:55 AM 3.2 °F - -0.4 °F 85% 30.36 in 10.0 mi Calm Calm - N/A   Clear
4:15 AM 3.2 °F -4.2 °F -0.4 °F 85% 30.36 in 10.0 mi South 3.5 mph - N/A   Clear
4:35 AM 5.0 °F - 1.4 °F 85% 30.36 in 10.0 mi Calm Calm - N/A   Clear
4:55 AM 12.2 °F - 10.4 °F 92% 30.36 in 10.0 mi Calm Calm - N/A   Clear
5:15 AM 14.0 °F 8.2 °F 12.2 °F 93% 30.36 in 10.0 mi South 3.5 mph - N/A   Scattered Clouds
5:35 AM 15.8 °F 10.2 °F 14.0 °F 93% 30.35 in 10.0 mi SSE 3.5 mph - N/A   Scattered Clouds
5:55 AM 17.6 °F - 14.0 °F 86% 30.35 in 10.0 mi Calm Calm - N/A   Scattered Clouds
6:15 AM 17.6 °F 10.7 °F 14.0 °F 86% 30.35 in 10.0 mi South 4.6 mph - N/A   Scattered Clouds
6:35 AM 17.6 °F 10.7 °F 14.0 °F 86% 30.35 in 10.0 mi South 4.6 mph - N/A   Clear
6:55 AM 17.6 °F 10.7 °F 15.8 °F 93% 30.35 in 10.0 mi South 4.6 mph - N/A   Clear
7:15 AM 19.4 °F 12.8 °F 15.8 °F 86% 30.35 in 10.0 mi South 4.6 mph - N/A   Clear
7:35 AM 19.4 °F 12.8 °F 15.8 °F 86% 30.35 in 10.0 mi South 4.6 mph - N/A   Scattered Clouds
7:55 AM 21.2 °F 12.6 °F 17.6 °F 86% 30.35 in 10.0 mi South 6.9 mph - N/A   Clear
8:15 AM 23.0 °F 13.9 °F 17.6 °F 80% 30.35 in 10.0 mi South 8.1 mph - N/A   Clear
8:35 AM 24.8 °F 17.9 °F 15.8 °F 69% 30.35 in 10.0 mi SSW 5.8 mph - N/A   Clear
8:55 AM 26.6 °F 18.2 °F 17.6 °F 69% 30.35 in 10.0 mi SW 8.1 mph - N/A   Clear
9:15 AM 26.6 °F 18.2 °F 17.6 °F 69% 30.34 in 10.0 mi South 8.1 mph 16.1 mph N/A   Clear
9:35 AM 28.4 °F 21.2 °F 17.6 °F 64% 30.34 in 10.0 mi SSW 6.9 mph - N/A   Clear
9:55 AM 28.4 °F 17.0 °F 17.6 °F 64% 30.33 in 10.0 mi South 15.0 mph 19.6 mph N/A   Clear
10:15 AM 30.2 °F 19.8 °F 19.4 °F 64% 30.32 in 10.0 mi SSW 13.8 mph 18.4 mph N/A   Clear
10:35 AM 32.0 °F 23.6 °F 19.4 °F 60% 30.32 in 10.0 mi South 10.4 mph - N/A   Clear
10:55 AM 32.0 °F 24.8 °F 19.4 °F 60% 30.31 in 10.0 mi SSW 8.1 mph 17.3 mph N/A   Clear
11:15 AM 32.0 °F 24.8 °F 19.4 °F 60% 30.31 in 10.0 mi SSW 8.1 mph - N/A   Clear
11:35 AM 33.8 °F 26.4 °F 19.4 °F 56% 30.30 in 10.0 mi South 9.2 mph - N/A   Clear
11:55 AM 35.6 °F 28.0 °F 19.4 °F 52% 30.30 in 10.0 mi SSW 10.4 mph - N/A   Clear
12:15 PM 35.6 °F 28.6 °F 19.4 °F 52% 30.29 in 10.0 mi South 9.2 mph 16.1 mph N/A   Clear
12:35 PM 35.6 °F 29.2 °F 19.4 °F 52% 30.28 in 10.0 mi South 8.1 mph - N/A   Clear
12:55 PM 35.6 °F 28.0 °F 19.4 °F 52% 30.27 in 10.0 mi SSW 10.4 mph - N/A   Clear
1:15 PM 37.4 °F 30.8 °F 19.4 °F 48% 30.27 in 10.0 mi South 9.2 mph 17.3 mph N/A   Clear
1:35 PM 37.4 °F 30.8 °F 17.6 °F 45% 30.27 in 10.0 mi South 9.2 mph 16.1 mph N/A   Clear
1:55 PM 39.2 °F 33.0 °F 17.6 °F 42% 30.26 in 10.0 mi SSW 9.2 mph - N/A   Clear
2:15 PM 39.2 °F 34.2 °F 19.4 °F 45% 30.26 in 10.0 mi SSW 6.9 mph - N/A   Clear
2:35 PM 39.2 °F 33.0 °F 17.6 °F 42% 30.25 in 10.0 mi SW 9.2 mph 16.1 mph N/A   Clear
2:55 PM 41.0 °F 34.7 °F 19.4 °F 42% 30.25 in 10.0 mi South 10.4 mph - N/A   Clear
3:15 PM 39.2 °F 33.6 °F 19.4 °F 45% 30.24 in 10.0 mi South 8.1 mph - N/A   Clear
3:35 PM 41.0 °F 36.4 °F 19.4 °F 42% 30.23 in 10.0 mi South 6.9 mph - N/A   Clear
3:55 PM 41.0 °F 35.2 °F 19.4 °F 42% 30.23 in 10.0 mi SSW 9.2 mph - N/A   Clear
4:15 PM 41.0 °F 35.8 °F 19.4 °F 42% 30.23 in 10.0 mi SSW 8.1 mph - N/A   Clear
4:35 PM 39.2 °F 35.0 °F 19.4 °F 45% 30.23 in 10.0 mi SSW 5.8 mph - N/A   Clear
4:55 PM 37.4 °F 32.8 °F 19.4 °F 48% 30.23 in 10.0 mi South 5.8 mph - N/A   Clear
5:15 PM 37.4 °F 33.8 °F 19.4 °F 48% 30.23 in 10.0 mi SSW 4.6 mph - N/A   Clear
5:35 PM 37.4 °F 34.9 °F 19.4 °F 48% 30.24 in 10.0 mi SSW 3.5 mph - N/A   Clear
5:55 PM 35.6 °F 32.8 °F 19.4 °F 52% 30.23 in 10.0 mi SSW 3.5 mph - N/A   Clear
6:15 PM 35.6 °F 31.7 °F 19.4 °F 52% 30.23 in 10.0 mi South 4.6 mph - N/A   Clear
6:35 PM 33.8 °F 29.6 °F 21.2 °F 60% 30.24 in 10.0 mi South 4.6 mph - N/A   Clear
6:55 PM 33.8 °F 29.6 °F 21.2 °F 60% 30.24 in 10.0 mi South 4.6 mph - N/A   Clear
7:15 PM 32.0 °F 27.5 °F 21.2 °F 64% 30.23 in 10.0 mi South 4.6 mph - N/A   Clear
7:35 PM 32.0 °F 28.7 °F 21.2 °F 64% 30.23 in 10.0 mi South 3.5 mph - N/A   Clear
7:55 PM 32.0 °F 28.7 °F 21.2 °F 64% 30.23 in 10.0 mi South 3.5 mph - N/A   Clear
8:15 PM 32.0 °F 28.7 °F 21.2 °F 64% 30.23 in 10.0 mi South 3.5 mph - N/A   Clear
8:35 PM 32.0 °F 28.7 °F 21.2 °F 64% 30.23 in 10.0 mi South 3.5 mph - N/A   Clear
8:55 PM 32.0 °F 27.5 °F 21.2 °F 64% 30.22 in 10.0 mi South 4.6 mph - N/A   Clear
9:15 PM 32.0 °F 27.5 °F 21.2 °F 64% 30.22 in 10.0 mi South 4.6 mph - N/A   Clear
9:35 PM 30.2 °F 25.4 °F 23.0 °F 75% 30.21 in 10.0 mi South 4.6 mph - N/A   Clear
9:55 PM 30.2 °F 25.4 °F 23.0 °F 75% 30.21 in 10.0 mi South 4.6 mph - N/A   Clear
10:15 PM 30.2 °F 25.4 °F 23.0 °F 75% 30.21 in 10.0 mi South 4.6 mph - N/A   Clear
10:35 PM 30.2 °F 25.4 °F 23.0 °F 75% 30.20 in 10.0 mi South 4.6 mph - N/A   Clear
10:55 PM 30.2 °F 26.7 °F 23.0 °F 75% 30.20 in 10.0 mi South 3.5 mph - N/A   Clear
11:15 PM 30.2 °F 26.7 °F 23.0 °F 75% 30.20 in 10.0 mi SSW 3.5 mph - N/A   Clear
11:35 PM 30.2 °F 25.4 °F 23.0 °F 75% 30.20 in 10.0 mi SSW 4.6 mph - N/A   Clear
11:55 PM 30.2 °F - 23.0 °F 75% 30.20 in 10.0 mi Calm Calm - N/A   Clear